Hourly Data Report for September 04, 2017

All times are specified in Local Standard Time (LST). Add 1 hour to adjust for Daylight Saving Time where and when it is observed.

SUMMERSIDE
PRINCE EDWARD ISLAND

46°26'28.000" N
63°50'17.000" W
12.20 m
8300596
71702
WSD

Download Data

Hourly Data (September 2017)
Hourly Data Report for September 4, 2017
Temp Definition
°C
Dew Point Temp Definition
°C
Rel Hum Definition
%
Wind Dir Definition
10's deg

Wind Spd Definition
km/h
Visibility Definition
km
Stn Press Definition
kPa
Hmdx Definition


Wind Chill Definition


Weather Definition


TIME
00:00 14.3 11.5 83 16 26   101.15     LegendNANA
01:00 13.4 12.2 93 13 19   100.94     LegendNANA
02:00 13.5 12.5 94 13 20   100.73     LegendNANA
03:00 14.4 13.2 92 13 28   100.46     LegendNANA
04:00 14.9 13.6 92 14 34   100.24     LegendNANA
05:00 15.6 14.2 91 15 37   100.10     LegendNANA
06:00 16.5 15.0 90 16 32   100.01     LegendNANA
07:00 17.5 16.1 92 17 30   99.90     LegendNANA
08:00 16.4 14.1 87 20 36   99.89     LegendNANA
09:00 15.6 12.4 82 22 40   99.89     LegendNANA
10:00 14.7 12.1 85 21 38   99.84     LegendNANA
11:00 15.1 13.3 89 22 35   99.87     LegendNANA
12:00 15.7 14.3 92 24 31   99.94     LegendNANA
13:00 17.5 13.3 76 25 33   100.03     LegendNANA
14:00 17.8 13.2 74 25 31   100.12     LegendNANA
15:00 17.6 12.7 73 26 29   100.20     LegendNANA
16:00 18.2 12.0 67 26 23   100.28     LegendNANA
17:00 18.2 11.7 66 26 27   100.33     LegendNANA
18:00 17.9 12.5 71 25 19   100.38     LegendNANA
19:00 17.6 12.2 71 25 24   100.50     LegendNANA
20:00 15.8 13.4 85 22 18   100.58     LegendNANA
21:00 15.5 13.4 87 22 15   100.62     LegendNANA
22:00 16.0 13.2 84 23 21   100.62     LegendNANA
23:00 15.4 12.9 85 23 20   100.65     LegendNANA

Notes on Data Quality.

Legend

  • E = Estimated
  • M = Missing
  • NA = Not Available
  • ‡ = Partner data that is not subject to review by the National Climate Archives
Date modified: